GW5159 Weather Reports


Display with metric or nautical units.
time (UTC)temp
F
wind
direction
speed
MPH
gust
MPH
rain 1hr
in
rain 24hr
in
rain mn
in
humidity
%
barometer
mb
20260507020712 0 109 0.0 0.0 0.00 0.43 0.43 1009.9
20260507020208 0 108 0.0 0.0 0.00 0.43 0.43 1009.9
20260507015706 0 129 0.0 0.0 0.00 0.43 0.43 1010.2
20260507015203 0 114 0.0 1.0 0.00 0.43 0.43 1010.1
20260507014659 0 188 0.0 0.0 0.00 0.43 0.43 1010.2
20260507014155 0 237 0.0 1.0 0.00 0.43 0.43 1010.3
20260507013652 0 250 0.0 0.0 0.00 0.43 0.43 1010.1
20260507013149 0 310 0.0 0.0 0.00 0.43 0.43 1009.9
20260507012647 0 310 0.0 0.0 0.00 0.43 0.43 1010.0
20260507012142 0 310 0.0 0.0 0.00 0.43 0.43 1010.1
20260507011641 0 310 0.0 0.0 0.00 0.43 0.43 1010.1
20260507011136 0 310 0.0 0.0 0.00 0.43 0.43 1010.0
20260507010631 0 310 0.0 1.0 0.00 0.43 0.43 1009.9
20260507010128 0 310 0.0 1.0 0.00 0.43 0.43 1010.0
20260507005625 0 307 0.0 1.0 0.00 0.43 0.43 1009.8
20260507005121 0 296 1.0 2.0 0.00 0.43 0.43 1010.0
20260507004618 0 279 1.0 2.0 0.00 0.43 0.43 1009.9
20260507004116 0 297 1.0 1.0 0.00 0.43 0.43 1009.7
20260507003612 0 313 1.0 2.0 0.00 0.43 0.43 1009.5
20260507003107 0 305 1.0 1.0 0.00 0.43 0.43 1009.5
20260507002604 0 311 2.0 3.0 0.00 0.43 0.43 1009.8
20260507002059 0 308 1.0 2.0 0.00 0.43 0.43 1009.5
20260507001556 0 249 1.0 3.0 0.00 0.43 0.43 1009.5
20260507001054 0 319 3.0 3.0 0.00 0.43 0.43 1009.7
20260507000549 0 324 4.0 4.0 0.00 0.43 0.43 1009.6
20260507000045 0 297 3.0 4.0 0.00 0.43 0.43 1009.4
20260506235543 0 347 2.0 3.0 0.00 0.43 0.43 1009.5
20260506235038 0 318 2.0 4.0 0.00 0.43 0.43 1009.5
20260506234536 0 318 2.0 3.0 0.00 0.43 0.43 1009.3
20260506234033 0 290 2.0 4.0 0.00 0.43 0.43 1009.3
20260506233530 0 272 3.0 6.0 0.00 0.43 0.43 1009.2
20260506233027 0 273 3.0 3.0 0.00 0.43 0.43 1008.9
20260506232523 0 266 1.0 2.0 0.00 0.43 0.43 1008.6
20260506232018 0 270 0.0 1.0 0.00 0.43 0.43 1008.8
20260506231516 0 266 1.0 1.0 0.00 0.43 0.43 1008.5
20260506231014 0 286 1.0 2.0 0.00 0.43 0.43 1008.5
20260506230510 0 246 0.0 1.0 0.00 0.43 0.43 1008.8
20260506230008 0 309 1.0 2.0 0.00 0.43 0.43 1008.5
20260506225504 0 305 3.0 4.0 0.00 0.43 0.43 1008.4
20260506225000 0 326 2.0 4.0 0.00 0.43 0.43 1008.4
20260506224457 0 294 3.0 3.0 0.00 0.43 0.43 1008.3
20260506223954 0 294 3.0 4.0 0.00 0.43 0.43 1008.4
20260506223450 0 317 5.0 7.0 0.00 0.43 0.43 1008.4
20260506222947 0 291 6.0 7.0 0.00 0.43 0.43 1008.8
20260506222444 0 312 6.0 7.0 0.00 0.43 0.43 1008.9
20260506221940 0 315 2.0 3.0 0.00 0.43 0.43 1008.8
20260506221437 0 311 4.0 4.0 0.00 0.43 0.43 1008.5
20260506220935 0 278 1.0 2.0 0.00 0.43 0.43 1008.3
20260506220431 0 306 2.0 3.0 0.00 0.43 0.43 1008.3
20260506215927 0 328 2.0 3.0 0.00 0.43 0.43 1008.3
20260506215423 0 309 2.0 3.0 0.00 0.43 0.43 1008.4
20260506214919 0 321 2.0 3.0 0.00 0.43 0.43 1008.6
20260506214417 0 347 2.0 7.0 0.00 0.43 0.43 1008.4
20260506213914 0 316 4.0 7.0 0.00 0.43 0.43 1008.4
20260506213412 0 329 3.0 3.0 0.00 0.43 0.43 1008.3
20260506212909 0 320 4.0 4.0 0.00 0.43 0.43 1008.3
20260506212405 0 295 3.0 4.0 0.00 0.43 0.43 1008.1
20260506211859 0 322 3.0 8.0 0.00 0.43 0.43 1008.2
20260506211356 0 309 6.0 9.0 0.00 0.43 0.43 1008.3
20260506210853 0 317 6.0 9.0 0.00 0.43 0.43 1008.2
20260506210350 0 317 9.0 10.0 0.00 0.43 0.43 1008.1
20260506205847 0 331 11.0 13.0 0.00 0.43 0.43 1008.0
20260506205343 0 306 7.0 10.0 0.00 0.43 0.43 1007.9
20260506204840 0 331 7.0 9.0 0.00 0.43 0.43 1007.8
20260506204337 0 342 6.0 9.0 0.00 0.43 0.43 1007.8
20260506203835 0 298 6.0 10.0 0.00 0.43 0.43 1007.7
20260506203332 0 314 9.0 11.0 0.00 0.43 0.43 1007.8
20260506202828 0 322 7.0 11.0 0.00 0.43 0.43 1007.7
20260506202326 0 326 8.0 13.0 0.00 0.43 0.43 1007.6
20260506201822 0 314 8.0 13.0 0.00 0.43 0.43 1007.6
20260506201320 0 324 5.0 9.0 0.00 0.43 0.43 1007.5
20260506200816 0 299 6.0 10.0 0.00 0.43 0.43 1007.5
20260506200312 0 298 4.0 10.0 0.00 0.43 0.43 1007.4
20260506195808 0 339 5.0 6.0 0.00 0.43 0.43 1007.3
20260506195306 0 324 8.0 11.0 0.00 0.43 0.43 1007.4
20260506194803 0 332 6.0 11.0 0.00 0.43 0.43 1007.1
20260506194259 0 342 4.0 7.0 0.00 0.43 0.43 1007.2
20260506193757 0 339 4.0 9.0 0.00 0.43 0.43 1007.2
20260506193253 0 330 4.0 10.0 0.00 0.43 0.43 1007.2
20260506192750 0 312 5.0 10.0 0.00 0.43 0.43 1007.1
20260506192247 0 347 4.0 8.0 0.05 0.43 0.43 1007.1
20260506191743 0 315 4.0 4.0 0.05 0.43 0.43 1007.1
20260506191240 0 5 2.0 4.0 0.00 0.42 0.42 1007.1
20260506190737 0 312 8.0 13.0 0.00 0.42 0.42 1006.9
20260506190233 0 324 4.0 10.0 0.00 0.42 0.42 1007.1
20260506185731 0 327 8.0 10.0 0.00 0.42 0.42 1007.1
20260506185227 0 312 9.0 11.0 0.00 0.42 0.42 1007.1
20260506184725 0 333 7.0 8.0 0.00 0.42 0.42 1007.0
20260506184222 0 329 6.0 9.0 0.00 0.42 0.42 1006.7
20260506183719 0 307 5.0 9.0 0.00 0.42 0.42 1006.5
20260506183214 0 348 3.0 8.0 0.00 0.42 0.42 1006.6
20260506182712 0 300 7.0 11.0 0.00 0.42 0.42 1006.5
20260506182209 0 331 8.0 10.0 0.00 0.42 0.42 1006.6
20260506181706 0 318 6.0 10.0 0.00 0.42 0.42 1006.4
20260506181204 0 322 3.0 7.0 0.00 0.42 0.42 1006.4
20260506180701 0 314 9.0 10.0 0.00 0.42 0.42 1006.4
20260506180156 0 310 5.0 9.0 0.00 0.42 0.42 1006.3
20260506175653 0 320 7.0 10.0 0.00 0.42 0.42 1006.3
20260506175150 0 307 6.0 8.0 0.00 0.42 0.42 1006.3
20260506174648 0 320 6.0 9.0 0.07 0.42 0.42 1006.2
20260506174145 0 302 8.0 10.0 0.07 0.42 0.42 1006.1
20260506173643 0 299 6.0 9.0 0.00 0.41 0.41 1006.2
20260506173140 0 326 6.0 9.0 0.00 0.41 0.41 1006.1
20260506172636 0 342 4.0 6.0 0.00 0.41 0.41 1006.1
20260506172133 0 315 4.0 7.0 0.00 0.41 0.41 1006.1
20260506171631 0 297 6.0 6.0 0.00 0.41 0.41 1006.3
20260506171128 0 312 4.0 6.0 0.00 0.41 0.41 1006.0
20260506170626 0 305 5.0 6.0 0.00 0.41 0.41 1006.2
20260506170122 0 317 4.0 6.0 0.00 0.41 0.41 1006.1
20260506165621 0 285 4.0 6.0 0.00 0.41 0.41 1006.0
20260506165116 0 325 5.0 6.0 0.00 0.41 0.41 1006.0
20260506164614 0 305 4.0 6.0 0.00 0.41 0.41 1006.1
20260506164111 0 336 3.0 3.0 0.00 0.41 0.41 1006.0
20260506163607 0 314 4.0 6.0 0.00 0.41 0.41 1006.1
20260506163103 0 318 4.0 7.0 0.00 0.41 0.41 1006.1
20260506162559 0 312 8.0 9.0 0.00 0.41 0.41 1006.0
20260506162057 0 329 4.0 8.0 0.00 0.41 0.41 1006.0
20260506161554 0 323 6.0 8.0 0.00 0.41 0.41 1006.0
20260506161045 0 327 5.0 7.0 0.00 0.41 0.41 1006.2
20260506160543 0 304 4.0 6.0 0.00 0.41 0.41 1005.9
20260506160040 0 308 3.0 6.0 0.00 0.41 0.41 1006.2
20260506155538 0 319 6.0 7.0 0.00 0.41 0.41 1006.1
20260506153715 0 305 3.0 6.0 0.00 0.40 0.40 1006.1
20260506153212 0 323 6.0 7.0 0.00 0.40 0.40 1006.1
20260506152709 0 329 4.0 6.0 0.00 0.40 0.40 1006.1
20260506152206 0 301 2.0 3.0 0.07 0.40 0.40 1006.1
20260506151706 0 263 2.0 3.0 0.07 0.40 0.40 1006.1
20260506151201 0 254 0.0 1.0 0.00 0.39 0.39 1005.9
20260506150658 0 277 2.0 3.0 0.00 0.39 0.39 1006.0
20260506150155 0 313 5.0 6.0 0.05 0.39 0.39 1006.0
20260506145652 0 325 5.0 7.0 0.05 0.39 0.39 1006.0
20260506145149 0 288 6.0 7.0 0.00 0.38 0.38 1005.9
20260506144647 0 320 6.0 8.0 0.00 0.38 0.38 1005.7
20260506144143 0 298 4.0 6.0 0.00 0.38 0.38 1005.9
20260506143641 0 326 4.0 6.0 0.00 0.38 0.38 1005.9
20260506143139 0 321 6.0 7.0 0.07 0.38 0.38 1005.6
20260506142637 0 297 4.0 4.0 0.07 0.38 0.38 1005.7
20260506142135 0 326 3.0 6.0 0.00 0.37 0.37 1005.7
20260506141632 0 316 5.0 6.0 0.00 0.37 0.37 1005.6
20260506141130 0 319 5.0 6.0 0.05 0.37 0.37 1005.6
20260506140627 0 312 3.0 4.0 0.05 0.37 0.37 1005.7
20260506140124 0 319 4.0 6.0 0.00 0.36 0.36 1005.9
20260506135621 0 317 3.0 7.0 0.07 0.36 0.36 1005.7
20260506135117 0 326 5.0 6.0 0.07 0.36 0.36 1005.7
20260506134614 0 310 3.0 6.0 0.00 0.35 0.35 1005.7
20260506134110 0 313 3.0 7.0 0.07 0.35 0.35 1005.7
20260506133608 0 307 4.0 4.0 0.07 0.35 0.35 1005.9
20260506133104 0 306 2.0 3.0 0.05 0.34 0.34 1005.6
20260506132601 0 324 2.0 4.0 0.05 0.34 0.34 1005.7
20260506132058 0 302 2.0 2.0 0.07 0.33 0.33 1006.0
20260506131556 0 298 1.0 2.0 0.05 0.32 0.32 1006.0
20260506131052 0 306 1.0 2.0 0.12 0.32 0.32 1005.9
20260506130549 0 270 1.0 1.0 0.12 0.31 0.31 1006.0
20260506130047 0 262 0.0 0.0 0.07 0.29 0.29 1006.1
20260506125545 0 286 1.0 2.0 0.12 0.28 0.28 1006.1
20260506125042 0 321 2.0 3.0 0.17 0.28 0.28 1006.0
20260506124540 0 305 2.0 2.0 0.05 0.26 0.26 1006.1
20260506124037 0 284 2.0 2.0 0.07 0.25 0.25 1006.0
20260506123535 0 298 2.0 4.0 0.12 0.25 0.25 1005.9
20260506123033 0 313 3.0 4.0 0.05 0.24 0.24 1005.7
20260506122529 0 318 2.0 3.0 0.07 0.23 0.23 1005.6
20260506122028 0 309 3.0 3.0 0.14 0.23 0.23 1005.5
20260506121525 0 272 2.0 3.0 0.12 0.22 0.22 1005.9
20260506121021 0 273 3.0 4.0 0.12 0.21 0.21 1005.9
20260506120519 0 279 5.0 6.0 0.07 0.20 0.20 1005.9
20260506120016 0 329 4.0 4.0 0.05 0.19 0.19 1005.7
20260506115514 0 326 5.0 7.0 0.05 0.19 0.19 1005.7
20260506115012 0 321 4.0 6.0 0.07 0.18 0.18 1006.0
20260506114509 0 310 1.0 2.0 0.07 0.18 0.18 1005.6
20260506114008 0 320 1.0 2.0 0.00 0.17 0.17 1005.7
20260506113505 0 314 0.0 2.0 0.05 0.17 0.17 1005.7
20260506113002 0 146 0.0 0.0 0.05 0.17 0.17 1005.6
20260506112459 0 181 0.0 1.0 0.07 0.16 0.16 1005.9
20260506111956 0 150 0.0 0.0 0.12 0.16 0.16 1005.6
20260506111454 0 66 1.0 2.0 0.12 0.15 0.15 1005.7
20260506110951 0 44 1.0 1.0 0.07 0.14 0.14 1005.9
20260506110449 0 100 0.0 0.0 0.05 0.13 0.13 1006.0
20260506105945 0 100 0.0 0.0 0.05 0.13 0.13 1006.0
20260506105441 0 100 1.0 2.0 0.00 0.12 0.12 1005.9
20260506104939 0 193 0.0 2.0 0.07 0.12 0.12 1006.0
20260506104437 0 158 1.0 1.0 0.07 0.12 0.12 1006.1
20260506103935 0 215 1.0 2.0 0.07 0.11 0.11 1006.3
20260506103432 0 172 0.0 0.0 0.07 0.11 0.11 1005.9
20260506102928 0 147 0.0 0.0 0.05 0.10 0.10 1006.2
20260506102427 0 169 0.0 0.0 0.12 0.10 0.10 1006.1
20260506101924 0 157 0.0 0.0 0.12 0.09 0.09 1006.1
20260506101420 0 219 0.0 0.0 0.05 0.08 0.08 1006.0
20260506100917 0 246 0.0 0.0 0.00 0.07 0.07 1006.0
20260506100416 0 224 1.0 2.0 0.07 0.07 0.07 1006.3
20260506095913 0 261 1.0 2.0 0.00 0.06 0.06 1005.9
20260506095411 0 325 2.0 3.0 0.05 0.06 0.06 1006.1
20260506094907 0 285 2.0 2.0 0.05 0.06 0.06 1006.3
20260506094406 0 303 2.0 3.0 0.00 0.05 0.05 1006.4
20260506093903 0 340 2.0 4.0 0.00 0.05 0.05 1006.4
20260506093401 0 12 1.0 2.0 0.07 0.05 0.05 1006.5
20260506092859 0 283 6.0 7.0 0.07 0.05 0.05 1006.5
20260506092356 0 336 3.0 7.0 0.00 0.04 0.04 1006.8
20260506091852 0 340 2.0 6.0 0.05 0.04 0.04 1006.7
20260506091351 0 332 4.0 4.0 0.05 0.04 0.04 1006.5
20260506090848 0 307 2.0 3.0 0.00 0.03 0.03 1006.6
20260506090345 0 65 0.0 2.0 0.07 0.03 0.03 1006.2
20260506085842 0 209 0.0 1.0 0.07 0.03 0.03 1006.2
20260506085338 0 309 0.0 0.0 0.00 0.02 0.02 1006.5
20260506084835 0 309 0.0 1.0 0.05 0.02 0.02 1006.5
20260506084332 0 308 0.0 0.0 0.05 0.02 0.02 1006.6
20260506083828 0 305 1.0 1.0 0.05 0.02 0.02 1006.5
20260506083326 0 313 0.0 1.0 0.00 0.01 0.01 1006.5
20260506082823 0 304 0.0 0.0 0.00 0.01 0.01 1006.3
20260506082319 0 310 2.0 2.0 0.07 0.01 0.01 1006.5
20260506081816 0 291 2.0 3.0 0.07 0.01 0.01 1006.5
20260506081314 0 183 0.0 0.0 0.00 0.00 0.00 1006.3
20260506080811 0 183 0.0 1.0 0.00 0.00 0.00 1006.2
20260506080307 0 153 1.0 2.0 0.00 0.00 0.00 1006.0
20260506073251 0 240 2.0 2.0 0.00 0.00 0.00 1006.5
20260506072748 0 167 0.0 0.0 0.00 0.00 0.00 1006.2
20260506072246 0 166 0.0 0.0 0.00 0.00 0.00 1006.3
20260506071744 0 161 1.0 1.0 0.00 0.00 0.00 1006.3
20260506071241 0 148 0.0 1.0 0.00 0.00 0.00 1006.6
20260506070738 0 171 1.0 1.0 0.00 0.00 0.00 1006.4
20260506070235 0 139 0.0 0.0 0.00 0.00 0.00 1006.6
20260506062212 0 251 3.0 3.0 0.00 0.00 0.00 1007.4
20260506061708 0 115 1.0 2.0 0.00 0.00 0.00 1007.2
20260506061205 0 78 0.0 1.0 0.00 0.00 0.00 1007.4
20260506060704 0 275 4.0 4.0 0.00 0.00 0.00 1007.8
20260506060201 0 252 0.0 2.0 0.00 0.00 0.00 1007.7
20260506051132 0 227 0.0 0.0 0.00 0.00 0.00 1008.4
20260506050631 0 208 0.0 0.0 0.00 0.00 0.00 1008.4
20260506050128 0 230 1.0 1.0 0.00 0.00 0.00 1008.4
20260506045121 0 204 0.0 0.0 0.00 0.00 0.00 1008.3
20260506044619 0 218 0.0 0.0 0.00 0.00 0.00 1008.5
20260506044115 0 321 0.0 0.0 0.00 0.00 0.00 1008.4
20260506043613 0 296 0.0 0.0 0.00 0.00 0.00 1008.3
20260506043111 0 325 0.0 0.0 0.00 0.00 0.00 1008.3
20260506042610 0 296 0.0 0.0 0.00 0.00 0.00 1008.2
20260506042107 0 296 0.0 0.0 0.00 0.00 0.00 1007.9
20260506041606 0 236 1.0 1.0 0.00 0.00 0.00 1007.9
20260506041102 0 297 0.0 0.0 0.00 0.00 0.00 1008.1
20260506040600 0 276 0.0 0.0 0.00 0.00 0.00 1008.5
20260506040056 0 277 1.0 1.0 0.00 0.00 0.00 1008.3
20260506035553 0 335 1.0 2.0 0.00 0.33 0.33 1008.3
20260506035050 0 236 1.0 2.0 0.00 0.33 0.33 1008.5
20260506034547 0 150 0.0 1.0 0.00 0.33 0.33 1008.4
20260506034044 0 209 0.0 1.0 0.00 0.33 0.33 1008.8
20260506033541 0 262 1.0 3.0 0.00 0.33 0.33 1008.8
20260506033038 0 268 1.0 1.0 0.00 0.33 0.33 1009.0
20260506032535 0 273 2.0 2.0 0.00 0.33 0.33 1008.8
20260506032032 0 279 1.0 4.0 0.00 0.33 0.33 1008.8
20260506031530 0 318 1.0 2.0 0.00 0.33 0.33 1008.8
20260506031026 0 258 0.0 2.0 0.00 0.33 0.33 1008.9
20260506030525 0 51 0.0 0.0 0.00 0.33 0.33 1009.0
20260506030021 0 51 0.0 1.0 0.00 0.33 0.33 1009.0
20260506025518 0 51 0.0 1.0 0.05 0.33 0.33 1009.2
20260506025014 0 50 0.0 1.0 0.05 0.33 0.33 1009.1
20260506024512 0 51 2.0 3.0 0.00 0.32 0.32 1008.4
20260506024008 0 268 0.0 0.0 0.00 0.32 0.32 1009.2
20260506023504 0 266 1.0 1.0 0.00 0.32 0.32 1009.3
20260506023001 0 305 2.0 2.0 0.00 0.32 0.32 1009.2
20260506022459 0 277 0.0 0.0 0.00 0.32 0.32 1009.2
20260506021956 0 329 1.0 3.0 0.00 0.32 0.32 1009.0
20260506021454 0 324 1.0 2.0 0.00 0.32 0.32 1009.1